Regional Weather Roundup
Issued by NWS

Home | Current Version | Previous Version | Graphics & Text | Print | Product List | Glossary On
Versions: 1 2 3 4 5 6 7 8 9 10 11 12 13 14 15 16 17 18 19 20 21 22 23 24 25 26 27 28 29 30 31 32 33 34 35 36 37 38 39 40 41 42 43 44 45 46 47 48 49 50
000
ASUS45 KABQ 151901
RWRNM
NEW MEXICO REGIONAL WEATHER ROUNDUP
NATIONAL WEATHER SERVICE ALBUQUERQUE NM
1200 PM MST FRI DEC 15 2017

NOTE: "FAIR" MEANS FEW OR NO CLOUDS BELOW 12,000 FEET AGL WITH NO
       SIGNIFICANT WEATHER OR OBSTRUCTIONS TO VISION.

      THIS PRODUCT IS RELEASED AS TWO VERSIONS.  ONE VERSION NEAR
      THE TOP OF THE HOUR CONTAINING PRELIMINARY DATA FROM ALBUQUERQUE
      AND OTHER STATIONS.  A FINAL VERSION WITH ADDITIONAL DATA IS
      ISSUED ABOUT 10 MINUTES AFTER THE HOUR.

NMZ501-503-504-510>518-152000-
NORTHWEST PLATEAU/NORTHCENTRAL MOUNTAINS

CITY           SKY/WX    TMP DP  RH WIND       PRES   REMARKS
FARMINGTON     FAIR      37  15  40 S3        30.29F
LOS ALAMOS     FAIR      36  13  39 E7        30.27F WCI  30
SANTA FE       FAIR      41  15  35 N14       30.24F
TAOS           FAIR      39  10  30 NW6       30.28F WCI  35
ANGEL FIRE     FAIR      40  -4  15 SW9G16    30.22F WCI  34

$$
NMZ402-403-502-505>509-152000-
WESTCENTRAL MOUNTAINS/SOUTHWEST MOUNTAINS

CITY           SKY/WX    TMP DP  RH WIND       PRES   REMARKS
GALLUP         FAIR      43   6  21 W6        30.30F
GRANTS         FAIR      40   9  27 NW7G18    30.30F WCI  35
SILVER CITY    FAIR      44  16  32 S5        30.30F

$$
NMZ407-409-411-412-152000-
SOUTHERN DESERTS

CITY           SKY/WX    TMP DP  RH WIND       PRES   REMARKS
DEMING         FAIR      48  19  31 VRB5      30.31F
LAS CRUCES     FAIR      47  20  34 SE3       30.32F
HOLLOMAN AFB   FAIR      48  17  29 SW5       30.33F
ALAMOGORDO     FAIR      46  18  31 SW8       30.32F
T OR C         FAIR      48  17  29 CALM      30.28F

$$
NMZ519>523-152000-
CENTRAL VALLEYS/CENTRAL HIGHLANDS

CITY           SKY/WX    TMP DP  RH WIND       PRES   REMARKS
ALBUQUERQUE    FAIR      41  18  39 W3        30.28F
DOUBLE EAGLE   SUNNY     39  18  41 W5        30.29F
MORIARTY ARPT  FAIR      49  15  25 N5G10     30.23F
CLINES CORNERS FAIR      41  11  29 NW20G32   30.21F
BELEN          FAIR      43  16  33 CALM      30.29F
SOCORRO        FAIR      41  15  35 N3        30.30F

$$
NMZ524>526-539-540-152000-
SOUTHCENTRAL MOUNTAINS

CITY           SKY/WX    TMP DP  RH WIND       PRES   REMARKS
RUIDOSO        FAIR      45   7  21 N8        30.25F

$$
NMZ527>531-152000-
NORTHEAST HIGHLANDS/NORTHEAST PLAINS

CITY           SKY/WX    TMP DP  RH WIND       PRES   REMARKS
LAS VEGAS      FAIR      50 -10   8 S12       30.16F
RATON          FAIR      41  16  36 VRB3      30.11F
CLAYTON        FAIR      52   4  14 SW14      30.09F

$$
NMZ532>537-152000-
EASTCENTRAL PLAINS

CITY           SKY/WX    TMP DP  RH WIND       PRES   REMARKS
SANTA ROSA     FAIR      48  20  32 SE7       30.17F
TUCUMCARI      FAIR      53  21  28 SW12G22   30.14F
CANNON AFB     FAIR      47  25  43 W16G23    30.21F
CLOVIS AIRPORT FAIR      48  24  39 W20       30.21F

$$
NMZ028-029-538-152000-
SOUTHEAST PLAINS

CITY           SKY/WX    TMP DP  RH WIND       PRES   REMARKS
ROSWELL        FAIR      51  24  34 SW10G18   30.25F
ARTESIA        FAIR      48  25  40 S14       30.27F
CARLSBAD       FAIR      50  27  40 S9        30.28F
HOBBS          SUNNY     50  23  34 SW12      30.27F


$$




USA.gov is the U.S. government's official web portal to all federal, state and local government web resources and services.